Back to catalog

COSMOS 2455

AliveNavigationLEO
NORAD 36095·PAYLOAD·🇷🇺 Russia

Launched Nov 20, 2009 from Plesetsk Cosmodrome

Loading…

Next Passes (next 24 hours)

TLE

FreshSource: Space-Track

Epoch: Sep 13, 2026, 11:42 UTC

1 36095U 09063A   26256.48772936 -.00000067  00000-0  59723-5 0  9993
2 36095  67.1487  38.1506 0005397 296.7223  63.3309 13.97057251857460

Track COSMOS 2455 in real time with AllMySat

Download on the App Store